Location: Izdebno
(52.6670°N, 16.2170°E)
Time: 06:44:22
(UTC+02:00)

Vanguard 2 Rocket - Pass Details

Date: 29 February 2024
Orbit: 555 x 3307 km, 32.9° (Epoch: 24 April)

Event Time Altitude Azimuth Distance (km) Brightness Sun altitude
Rises 12:46:15 0° 204° (SSW) 3,763 11.2 29.1°
Reaches altitude 10° 12:49:48 10° 182° (S) 3,215 11.3 29.0°
Maximum altitude 12:54:27 16° 148° (SSE) 3,283 10.6 28.8°
Drops below altitude 10° 13:00:30 10° 115° (ESE) 4,414 10.6 28.6°
Sets 13:06:55 0° 99° (E) 6,041 11.0 28.4°
